Top countries

USA - 11224
Canada - 2056
United Kingdom - 1972
Australia - 1242
Poland - 1143
Brazil - 1135
Germany - 1111
Iran - 1083
Russia - 991
France - 957
Greece - 955
Mexico - 935
Some observations

Total members: 53992
Guys: 44748
Girls: 9204

Positions

Admin
Staff
Moderator
Elite
Contributor
Search







Pages: 1 ... 742 743 744 [745] 746 747 748 ... 1079
Username Sex Age Location Registered Last seen online Posts Points
37201 Vandroya Brazil 07.06.2013 503d ago 0 0
37202 Teena Cameroon 07.06.2013 never 0 0
37203 giodebabal Greece 07.06.2013 11d ago 0 0
37204 Julissa Dominican Republic 07.06.2013 never 0 0
37205 junior021 USA 07.06.2013 503d ago 0 0
37206 SadkErenTatekin 08.06.2013 494d ago 0 0
37207 Branden Australia 08.06.2013 never 0 0
37208 Josie Austria 08.06.2013 never 0 0
37209 Sondra Rwanda 08.06.2013 never 0 0
37210 Philomena Lebanon 08.06.2013 never 0 0
37211 Marissa Yemen 08.06.2013 never 0 0
37212 Ramiro Zambia 08.06.2013 never 0 0
37213 Tangela Marshall Islands 08.06.2013 never 0 0
37214 Nocturne Iran 08.06.2013 never 0 0
37215 Nocturne-km Iran 08.06.2013 98d ago 0 0
37216 veal Poland 08.06.2013 502d ago 0 0
37217 DemmelitionMan 08.06.2013 457d ago 0 0
37218 Pavel Czech Republic 08.06.2013 495d ago 0 0
37219 Deadcenter Ukraine 08.06.2013 498d ago 0 0
37220 bigdr82 Australia 08.06.2013 never 0 0
37221 romeosingal USA 08.06.2013 502d ago 0 0
37222 Maybell Oman 08.06.2013 never 0 0
37223 quill5soccer Indonesia 08.06.2013 never 0 0
37224 tempoklad United Kingdom 08.06.2013 12h ago 0 0
37225 LordInfinity Argentina 08.06.2013 never 0 0
37226 hieidemon Argentina 08.06.2013 384d ago 0 0
37227 Kenton Brunei 08.06.2013 never 0 0
37228 UncleProg 23 Poland 08.06.2013 4h ago 0 0
37229 Le3o 17 Paraguay 08.06.2013 502d ago 0 0
37230 bagby Latvia 09.06.2013 233d ago 0 0
37231 Leigh Latvia 09.06.2013 never 0 0
37232 deepgrowl88 37 Norway 09.06.2013 500d ago 0 0
37233 siki Serbia 09.06.2013 487d ago 0 0
37234 Rosalind Kiribati 09.06.2013 never 0 0
37235 AliMohammed 09.06.2013 162d ago 0 0
37236 DavideIsola 09.06.2013 501d ago 0 0
37237 A6'sGurrrl 15 USA 09.06.2013 501d ago 0 0
37238 engenas Lithuania 09.06.2013 178d ago 0 0
37239 Janrey United Kingdom 09.06.2013 501d ago 0 0
37240 kyyvits Estonia 09.06.2013 501d ago 0 0
37241 ego Italy 09.06.2013 never 0 0
37242 JamieLaverickPoetry   09.06.2013 501d ago 0 0
37243 juri1012 Germany 09.06.2013 37d ago 0 0
37244 Uta Greece 09.06.2013 never 0 0
37245 max101 Ireland 09.06.2013 495d ago 0 0
37246 carlos sebastian Puerto Rico 09.06.2013 never 0 0
37247 TiiaLutsoja 09.06.2013 324d ago 0 0
37248 Joao.Martins 25 Portugal 09.06.2013 501d ago 0 0
37249 QueenMiSeRy Italy 09.06.2013 455d ago 0 0
37250 Mkuusi Finland 09.06.2013 501d ago 0 0
Pages: 1 ... 742 743 744 [745] 746 747 748 ... 1079